owner,sensor,date,latitude,longitude,vertical_datum,direction_of_sea_water_velocity,sea_water_speed,upward_sea_water_velocity,qcFlag 
COMPS,ioos:station:USF.COMPS:C10:1,2010-06-01T04:00:00Z,27.1690,-82.9260,4.0,34.824489156957,28.017851452244,-99999.0,'1111122,1111122,1199999999' 
COMPS,ioos:station:USF.COMPS:C10:1,2010-06-01T05:00:00Z,27.1690,-82.9260,4.0,34.824489156957,28.017851452244,-99999.0,'1111122,1111122,1199999999' 
COMPS,ioos:station:USF.COMPS:C10:1,2010-06-01T06:00:00Z,27.1690,-82.9260,4.0,36.027373385104,27.202941017471,-99999.0,'1111122,1111122,1199999999' 
COMPS,ioos:station:USF.COMPS:C10:1,2010-06-01T07:00:00Z,27.1690,-82.9260,4.0,0.0,14.0,-99999.0,'1111122,1114422,1199999999' 
COMPS,ioos:station:USF.COMPS:C10:1,2010-06-01T08:00:00Z,27.1690,-82.9260,4.0,36.027373385104,27.202941017471,-99999.0,'1111122,1111122,1199999999' 
COMPS,ioos:station:USF.COMPS:C10:1,2010-06-01T09:00:00Z,27.1690,-82.9260,4.0,0.0,14.0,-99999.0,'1111122,1114422,1199999999' 
COMPS,ioos:station:USF.COMPS:C10:1,2010-06-01T11:00:00Z,27.1690,-82.9260,4.0,189.46232220803,12.165525060596,-99999.0,'1111122,1111122,1199999999' 
COMPS,ioos:station:USF.COMPS:C10:1,2010-06-01T12:00:00Z,27.1690,-82.9260,4.0,215.53767779197,8.6023252670426,-99999.0,'1111122,1111122,1199999999' 
COMPS,ioos:station:USF.COMPS:C10:1,2010-06-01T13:00:00Z,27.1690,-82.9260,4.0,213.69006752598,3.605551275464,-99999.0,'1111122,1111122,1199999999' 
COMPS,ioos:station:USF.COMPS:C10:1,2010-06-01T14:00:00Z,27.1690,-82.9260,4.0,206.56505117708,2.2360679774998,-99999.0,'1111122,1111122,1199999999' 
COMPS,ioos:station:USF.COMPS:C10:1,2010-06-01T15:00:00Z,27.1690,-82.9260,4.0,270.0,1.0,-99999.0,'1113322,1111122,1199999999' 
COMPS,ioos:station:USF.COMPS:C10:1,2010-06-01T16:00:00Z,27.1690,-82.9260,4.0,270.0,2.0,-99999.0,'1111122,1111122,1199999999' 
COMPS,ioos:station:USF.COMPS:C10:1,2010-06-01T17:00:00Z,27.1690,-82.9260,4.0,63.434948822922,2.2360679774998,-99999.0,'1111122,1111122,1199999999' 
COMPS,ioos:station:USF.COMPS:C10:1,2010-06-01T18:00:00Z,27.1690,-82.9260,4.0,206.56505117708,4.4721359549996,-99999.0,'1111122,1111122,1199999999' 
COMPS,ioos:station:USF.COMPS:C10:1,2010-06-01T19:00:00Z,27.1690,-82.9260,4.0,149.03624346793,5.8309518948453,-99999.0,'1111122,1111122,1199999999' 
COMPS,ioos:station:USF.COMPS:C10:1,2010-06-01T20:00:00Z,27.1690,-82.9260,4.0,171.86989764584,7.0710678118655,-99999.0,'1111122,1111122,1199999999' 
COMPS,ioos:station:USF.COMPS:C10:1,2010-06-01T21:00:00Z,27.1690,-82.9260,4.0,153.43494882292,11.180339887499,-99999.0,'1111122,1111122,1199999999' 
COMPS,ioos:station:USF.COMPS:C10:1,2010-06-02T01:00:00Z,27.1690,-82.9260,4.0,38.65980825409,25.612496949731,-99999.0,'1111122,1111122,1199999999' 
COMPS,ioos:station:USF.COMPS:C10:1,2010-06-02T04:00:00Z,27.1690,-82.9260,4.0,37.303948277983,26.400757564888,-99999.0,'1111122,1111122,1199999999' 
COMPS,ioos:station:USF.COMPS:C10:1,2010-06-02T05:00:00Z,27.1690,-82.9260,4.0,38.65980825409,25.612496949731,-99999.0,'1111122,1111122,1199999999' 
COMPS,ioos:station:USF.COMPS:C10:1,2010-06-02T06:00:00Z,27.1690,-82.9260,4.0,90.0,6.0,-99999.0,'1111122,1111122,1199999999' 
COMPS,ioos:station:USF.COMPS:C10:1,2010-06-02T07:00:00Z,27.1690,-82.9260,4.0,40.100907546212,24.839484696748,-99999.0,'1111122,1111122,1199999999' 
COMPS,ioos:station:USF.COMPS:C10:1,2010-06-02T09:00:00Z,27.1690,-82.9260,4.0,45.0,8.4852813742386,-99999.0,'1111122,1111122,1199999999' 
COMPS,ioos:station:USF.COMPS:C10:1,2010-06-02T11:00:00Z,27.1690,-82.9260,4.0,183.36646066343,17.029386365926,-99999.0,'1111122,1111122,1199999999' 
COMPS,ioos:station:USF.COMPS:C10:1,2010-06-02T12:00:00Z,27.1690,-82.9260,4.0,184.398705355,13.038404810405,-99999.0,'1111122,1111122,1199999999' 
COMPS,ioos:station:USF.COMPS:C10:1,2010-06-02T13:00:00Z,27.1690,-82.9260,4.0,180.0,9.0,-99999.0,'1111122,1111122,1199999999' 
COMPS,ioos:station:USF.COMPS:C10:1,2010-06-02T14:00:00Z,27.1690,-82.9260,4.0,180.0,6.0,-99999.0,'1111122,1111122,1199999999' 
COMPS,ioos:station:USF.COMPS:C10:1,2010-06-02T15:00:00Z,27.1690,-82.9260,4.0,153.43494882292,6.7082039324994,-99999.0,'1111122,1111122,1199999999' 
COMPS,ioos:station:USF.COMPS:C10:1,2010-06-02T16:00:00Z,27.1690,-82.9260,4.0,108.43494882292,6.3245553203368,-99999.0,'1111122,1111122,1199999999' 
COMPS,ioos:station:USF.COMPS:C10:1,2010-06-02T17:00:00Z,27.1690,-82.9260,4.0,135.0,5.6568542494924,-99999.0,'1111122,1111122,1199999999' 
COMPS,ioos:station:USF.COMPS:C10:1,2010-06-02T18:00:00Z,27.1690,-82.9260,4.0,116.56505117708,11.180339887499,-99999.0,'1111122,1111122,1199999999' 
COMPS,ioos:station:USF.COMPS:C10:1,2010-06-02T19:00:00Z,27.1690,-82.9260,4.0,120.96375653207,11.661903789691,-99999.0,'1111122,1111122,1199999999' 
COMPS,ioos:station:USF.COMPS:C10:1,2010-06-02T20:00:00Z,27.1690,-82.9260,4.0,128.65980825409,12.806248474866,-99999.0,'1111122,1111122,1199999999' 
COMPS,ioos:station:USF.COMPS:C10:1,2010-06-02T21:00:00Z,27.1690,-82.9260,4.0,137.72631099391,14.866068747319,-99999.0,'1111122,1111122,1199999999' 
COMPS,ioos:station:USF.COMPS:C10:1,2010-06-02T22:00:00Z,27.1690,-82.9260,4.0,140.19442890773,15.620499351813,-99999.0,'1111122,1111122,1199999999' 
COMPS,ioos:station:USF.COMPS:C10:1,2010-06-02T23:00:00Z,27.1690,-82.9260,4.0,143.13010235416,15.0,-99999.0,'1111122,1111122,1199999999' 
COMPS,ioos:station:USF.COMPS:C10:1,2010-06-03T00:00:00Z,27.1690,-82.9260,4.0,145.30484646877,15.811388300842,-99999.0,'1111122,1111122,1199999999' 
COMPS,ioos:station:USF.COMPS:C10:1,2010-06-03T01:00:00Z,27.1690,-82.9260,4.0,225.0,4.2426406871193,-99999.0,'1111122,1111122,1199999999' 
COMPS,ioos:station:USF.COMPS:C10:1,2010-06-03T02:00:00Z,27.1690,-82.9260,4.0,137.72631099391,14.866068747319,-99999.0,'1111122,1111122,1199999999' 
COMPS,ioos:station:USF.COMPS:C10:1,2010-06-03T12:00:00Z,27.1690,-82.9260,4.0,229.398705355,9.2195444572929,-99999.0,'1111122,1111122,1199999999' 
COMPS,ioos:station:USF.COMPS:C10:1,2010-06-03T13:00:00Z,27.1690,-82.9260,4.0,270.0,2.0,-99999.0,'1111122,1111122,1199999999' 
COMPS,ioos:station:USF.COMPS:C10:1,2010-06-03T14:00:00Z,27.1690,-82.9260,4.0,45.0,1.4142135623731,-99999.0,'1111122,1111122,1199999999' 
COMPS,ioos:station:USF.COMPS:C10:1,2010-06-03T15:00:00Z,27.1690,-82.9260,4.0,0.0,1.0,-99999.0,'1113322,1114422,1199999999' 
COMPS,ioos:station:USF.COMPS:C10:1,2010-06-03T16:00:00Z,27.1690,-82.9260,4.0,0.0,2.0,-99999.0,'1111122,1114422,1199999999' 
COMPS,ioos:station:USF.COMPS:C10:1,2010-06-03T17:00:00Z,27.1690,-82.9260,4.0,108.43494882292,3.1622776601684,-99999.0,'1111122,1111122,1199999999' 
COMPS,ioos:station:USF.COMPS:C10:1,2010-06-03T18:00:00Z,27.1690,-82.9260,4.0,75.963756532074,4.1231056256177,-99999.0,'1111122,1111122,1199999999' 
COMPS,ioos:station:USF.COMPS:C10:1,2010-06-03T19:00:00Z,27.1690,-82.9260,4.0,90.0,2.0,-99999.0,'1111122,1111122,1199999999' 
COMPS,ioos:station:USF.COMPS:C10:1,2010-06-03T20:00:00Z,27.1690,-82.9260,4.0,90.0,4.0,-99999.0,'1111122,1111122,1199999999' 
COMPS,ioos:station:USF.COMPS:C10:1,2010-06-03T22:00:00Z,27.1690,-82.9260,4.0,135.0,2.8284271247462,-99999.0,'1111122,1111122,1199999999' 
COMPS,ioos:station:USF.COMPS:C10:1,2010-06-03T23:00:00Z,27.1690,-82.9260,4.0,180.0,4.0,-99999.0,'1111122,1111122,1199999999' 
COMPS,ioos:station:USF.COMPS:C10:1,2010-06-04T00:00:00Z,27.1690,-82.9260,4.0,135.0,2.8284271247462,-99999.0,'1111122,1111122,1199999999' 
COMPS,ioos:station:USF.COMPS:C10:1,2010-06-04T03:00:00Z,27.1690,-82.9260,4.0,40.100907546212,24.839484696748,-99999.0,'1111122,1111122,1199999999' 
COMPS,ioos:station:USF.COMPS:C10:1,2010-06-04T11:00:00Z,27.1690,-82.9260,4.0,344.05460409908,7.2801098892805,-99999.0,'1111122,1111122,1199999999' 
COMPS,ioos:station:USF.COMPS:C10:1,2010-06-04T12:00:00Z,27.1690,-82.9260,4.0,329.03624346793,11.661903789691,-99999.0,'1111122,1111122,1199999999' 
COMPS,ioos:station:USF.COMPS:C10:1,2010-06-04T13:00:00Z,27.1690,-82.9260,4.0,10.304846468766,11.180339887499,-99999.0,'1111122,1111122,1199999999' 
COMPS,ioos:station:USF.COMPS:C10:1,2010-06-04T14:00:00Z,27.1690,-82.9260,4.0,15.524110996754,18.681541692269,-99999.0,'1111122,1111122,1199999999' 
COMPS,ioos:station:USF.COMPS:C10:1,2010-06-04T15:00:00Z,27.1690,-82.9260,4.0,17.354024636261,16.76305461424,-99999.0,'1111122,1111122,1199999999' 
COMPS,ioos:station:USF.COMPS:C10:1,2010-06-04T16:00:00Z,27.1690,-82.9260,4.0,14.036243467926,16.492422502471,-99999.0,'1111122,1111122,1199999999' 
COMPS,ioos:station:USF.COMPS:C10:1,2010-06-04T17:00:00Z,27.1690,-82.9260,4.0,33.69006752598,18.02775637732,-99999.0,'1111122,1111122,1199999999' 
COMPS,ioos:station:USF.COMPS:C10:1,2010-06-04T18:00:00Z,27.1690,-82.9260,4.0,53.130102354156,20.0,-99999.0,'1111122,1111122,1199999999' 
COMPS,ioos:station:USF.COMPS:C10:1,2010-06-04T20:00:00Z,27.1690,-82.9260,4.0,95.7105931375,20.099751242242,-99999.0,'1111122,1111122,1199999999' 
COMPS,ioos:station:USF.COMPS:C10:1,2010-06-04T21:00:00Z,27.1690,-82.9260,4.0,111.37062226934,24.698178070457,-99999.0,'1111122,1111122,1199999999' 
COMPS,ioos:station:USF.COMPS:C10:1,2010-06-04T22:00:00Z,27.1690,-82.9260,4.0,126.46923439005,28.60069929215,-99999.0,'1111122,1111122,1199999999' 
COMPS,ioos:station:USF.COMPS:C10:1,2010-06-05T02:00:00Z,27.1690,-82.9260,4.0,168.23171106798,24.515301344263,-99999.0,'1111122,1111122,1199999999' 
COMPS,ioos:station:USF.COMPS:C10:1,2010-06-05T03:00:00Z,27.1690,-82.9260,4.0,175.03025927189,23.08679276123,-99999.0,'1111122,1111122,1199999999' 
COMPS,ioos:station:USF.COMPS:C10:1,2010-06-05T05:00:00Z,27.1690,-82.9260,4.0,196.38954033403,17.720045146669,-99999.0,'1111122,1111122,1199999999' 
COMPS,ioos:station:USF.COMPS:C10:1,2010-06-05T11:00:00Z,27.1690,-82.9260,4.0,288.43494882292,9.4868329805051,-99999.0,'1111122,1111122,1199999999' 
COMPS,ioos:station:USF.COMPS:C10:1,2010-06-05T12:00:00Z,27.1690,-82.9260,4.0,303.69006752598,10.816653826392,-99999.0,'1111122,1111122,1199999999' 
COMPS,ioos:station:USF.COMPS:C10:1,2010-06-05T13:00:00Z,27.1690,-82.9260,4.0,326.30993247402,7.211102550928,-99999.0,'1111122,1111122,1199999999' 
COMPS,ioos:station:USF.COMPS:C10:1,2010-06-05T14:00:00Z,27.1690,-82.9260,4.0,354.2894068625,10.049875621121,-99999.0,'1111122,1111122,1199999999' 
COMPS,ioos:station:USF.COMPS:C10:1,2010-06-05T15:00:00Z,27.1690,-82.9260,4.0,10.304846468766,11.180339887499,-99999.0,'1111122,1111122,1199999999' 
COMPS,ioos:station:USF.COMPS:C10:1,2010-06-05T16:00:00Z,27.1690,-82.9260,4.0,30.256437163529,13.89244398945,-99999.0,'1111122,1111122,1199999999' 
COMPS,ioos:station:USF.COMPS:C10:1,2010-06-05T17:00:00Z,27.1690,-82.9260,4.0,39.805571092265,15.620499351813,-99999.0,'1111122,1111122,1199999999' 
COMPS,ioos:station:USF.COMPS:C10:1,2010-06-05T18:00:00Z,27.1690,-82.9260,4.0,57.994616791916,18.867962264113,-99999.0,'1111122,1111122,1199999999' 
COMPS,ioos:station:USF.COMPS:C10:1,2010-06-05T19:00:00Z,27.1690,-82.9260,4.0,79.992020198559,17.262676501632,-99999.0,'1111122,1111122,1199999999' 
COMPS,ioos:station:USF.COMPS:C10:1,2010-06-05T21:00:00Z,27.1690,-82.9260,4.0,103.39249775375,21.587033144923,-99999.0,'1111122,1111122,1199999999' 
COMPS,ioos:station:USF.COMPS:C10:1,2010-06-05T22:00:00Z,27.1690,-82.9260,4.0,116.56505117708,24.596747752498,-99999.0,'1111122,1111122,1199999999' 
COMPS,ioos:station:USF.COMPS:C10:1,2010-06-06T00:00:00Z,27.1690,-82.9260,4.0,138.17983011986,25.495097567964,-99999.0,'1111122,1111122,1199999999' 
COMPS,ioos:station:USF.COMPS:C10:1,2010-06-06T01:00:00Z,27.1690,-82.9260,4.0,180.0,4.0,-99999.0,'1111122,1111122,1199999999' 
COMPS,ioos:station:USF.COMPS:C10:1,2010-06-06T04:00:00Z,27.1690,-82.9260,4.0,168.11134196037,19.416487838948,-99999.0,'1111122,1111122,1199999999' 
COMPS,ioos:station:USF.COMPS:C10:1,2010-06-06T10:00:00Z,27.1690,-82.9260,4.0,37.303948277983,26.400757564888,-99999.0,'1111122,1111122,1199999999' 
COMPS,ioos:station:USF.COMPS:C10:1,2010-06-06T11:00:00Z,27.1690,-82.9260,4.0,209.05460409908,10.295630140987,-99999.0,'1111122,1111122,1199999999' 
COMPS,ioos:station:USF.COMPS:C10:1,2010-06-06T12:00:00Z,27.1690,-82.9260,4.0,213.69006752598,7.211102550928,-99999.0,'1111122,1111122,1199999999' 
COMPS,ioos:station:USF.COMPS:C10:1,2010-06-06T13:00:00Z,27.1690,-82.9260,4.0,195.94539590092,7.2801098892805,-99999.0,'1111122,1111122,1199999999' 
COMPS,ioos:station:USF.COMPS:C10:1,2010-06-06T14:00:00Z,27.1690,-82.9260,4.0,225.0,4.2426406871193,-99999.0,'1111122,1111122,1199999999' 
COMPS,ioos:station:USF.COMPS:C10:1,2010-06-06T15:00:00Z,27.1690,-82.9260,4.0,225.0,2.8284271247462,-99999.0,'1111122,1111122,1199999999' 
COMPS,ioos:station:USF.COMPS:C10:1,2010-06-06T16:00:00Z,27.1690,-82.9260,4.0,90.0,1.0,-99999.0,'1113322,1111122,1199999999' 
COMPS,ioos:station:USF.COMPS:C10:1,2010-06-06T17:00:00Z,27.1690,-82.9260,4.0,0.0,1.0,-99999.0,'1113322,1114422,1199999999' 
COMPS,ioos:station:USF.COMPS:C10:1,2010-06-06T18:00:00Z,27.1690,-82.9260,4.0,75.963756532074,4.1231056256177,-99999.0,'1111122,1111122,1199999999' 
COMPS,ioos:station:USF.COMPS:C10:1,2010-06-06T19:00:00Z,27.1690,-82.9260,4.0,69.443954780417,8.5440037453175,-99999.0,'1111122,1111122,1199999999' 
COMPS,ioos:station:USF.COMPS:C10:1,2010-06-06T20:00:00Z,27.1690,-82.9260,4.0,82.405356631409,15.132745950422,-99999.0,'1111122,1111122,1199999999' 
COMPS,ioos:station:USF.COMPS:C10:1,2010-06-06T21:00:00Z,27.1690,-82.9260,4.0,92.489552921999,23.021728866443,-99999.0,'1111122,1111122,1199999999' 
COMPS,ioos:station:USF.COMPS:C10:1,2010-06-06T22:00:00Z,27.1690,-82.9260,4.0,100.88552705466,26.476404589747,-99999.0,'1111122,1111122,1199999999' 
COMPS,ioos:station:USF.COMPS:C10:1,2010-06-07T01:00:00Z,27.1690,-82.9260,4.0,140.19442890773,7.8102496759067,-99999.0,'1111122,1111122,1199999999' 
COMPS,ioos:station:USF.COMPS:C10:1,2010-06-07T12:00:00Z,27.1690,-82.9260,4.0,168.69006752598,20.396078054371,-99999.0,'1111122,1111122,1199999999' 
COMPS,ioos:station:USF.COMPS:C10:1,2010-06-07T13:00:00Z,27.1690,-82.9260,4.0,171.46923439005,20.223748416157,-99999.0,'1111122,1111122,1199999999' 
COMPS,ioos:station:USF.COMPS:C10:1,2010-06-07T14:00:00Z,27.1690,-82.9260,4.0,168.11134196037,19.416487838948,-99999.0,'1111122,1111122,1199999999' 
COMPS,ioos:station:USF.COMPS:C10:1,2010-06-07T15:00:00Z,27.1690,-82.9260,4.0,173.99099404251,19.104973174543,-99999.0,'1111122,1111122,1199999999' 
COMPS,ioos:station:USF.COMPS:C10:1,2010-06-07T16:00:00Z,27.1690,-82.9260,4.0,169.38034472384,16.2788205961,-99999.0,'1111122,1111122,1199999999' 
COMPS,ioos:station:USF.COMPS:C10:1,2010-06-07T19:00:00Z,27.1690,-82.9260,4.0,135.0,16.970562748477,-99999.0,'1111122,1111122,1199999999' 
COMPS,ioos:station:USF.COMPS:C10:1,2010-06-07T20:00:00Z,27.1690,-82.9260,4.0,125.21759296819,20.808652046685,-99999.0,'1111122,1111122,1199999999' 
COMPS,ioos:station:USF.COMPS:C10:1,2010-06-07T21:00:00Z,27.1690,-82.9260,4.0,124.28687697721,26.627053911389,-99999.0,'1111122,1111122,1199999999' 
COMPS,ioos:station:USF.COMPS:C10:1,2010-06-07T22:00:00Z,27.1690,-82.9260,4.0,126.46923439005,28.60069929215,-99999.0,'1111122,1111122,1199999999' 
COMPS,ioos:station:USF.COMPS:C10:1,2010-06-08T01:00:00Z,27.1690,-82.9260,4.0,37.303948277983,26.400757564888,-99999.0,'1111122,1111122,1199999999' 
COMPS,ioos:station:USF.COMPS:C10:1,2010-06-08T05:00:00Z,27.1690,-82.9260,4.0,154.9831065219,33.105890714494,-99999.0,'1111122,1111122,1199999999' 
COMPS,ioos:station:USF.COMPS:C10:1,2010-06-08T11:00:00Z,27.1690,-82.9260,4.0,167.47119229085,18.439088914586,-99999.0,'1111122,1111122,1199999999' 
COMPS,ioos:station:USF.COMPS:C10:1,2010-06-08T12:00:00Z,27.1690,-82.9260,4.0,169.99202019856,17.262676501632,-99999.0,'1111122,1111122,1199999999' 
COMPS,ioos:station:USF.COMPS:C10:1,2010-06-08T13:00:00Z,27.1690,-82.9260,4.0,173.29016319224,17.117242768624,-99999.0,'1111122,1111122,1199999999' 
COMPS,ioos:station:USF.COMPS:C10:1,2010-06-08T14:00:00Z,27.1690,-82.9260,4.0,175.91438322003,14.035668847618,-99999.0,'1111122,1111122,1199999999' 
COMPS,ioos:station:USF.COMPS:C10:1,2010-06-08T15:00:00Z,27.1690,-82.9260,4.0,184.76364169073,12.041594578792,-99999.0,'1111122,1111122,1199999999' 
COMPS,ioos:station:USF.COMPS:C10:1,2010-06-08T16:00:00Z,27.1690,-82.9260,4.0,191.30993247402,10.198039027186,-99999.0,'1111122,1111122,1199999999' 
COMPS,ioos:station:USF.COMPS:C10:1,2010-06-08T18:00:00Z,27.1690,-82.9260,4.0,206.56505117708,2.2360679774998,-99999.0,'1111122,1111122,1199999999' 
COMPS,ioos:station:USF.COMPS:C10:1,2010-06-08T19:00:00Z,27.1690,-82.9260,4.0,45.0,1.4142135623731,-99999.0,'1111122,1111122,1199999999' 
COMPS,ioos:station:USF.COMPS:C10:1,2010-06-08T20:00:00Z,27.1690,-82.9260,4.0,56.30993247402,3.605551275464,-99999.0,'1111122,1111122,1199999999' 
COMPS,ioos:station:USF.COMPS:C10:1,2010-06-08T21:00:00Z,27.1690,-82.9260,4.0,59.036243467926,11.661903789691,-99999.0,'1111122,1111122,1199999999' 
COMPS,ioos:station:USF.COMPS:C10:1,2010-06-08T22:00:00Z,27.1690,-82.9260,4.0,69.443954780417,17.088007490635,-99999.0,'1111122,1111122,1199999999' 
COMPS,ioos:station:USF.COMPS:C10:1,2010-06-09T01:00:00Z,27.1690,-82.9260,4.0,125.53767779197,34.409301068171,-99999.0,'1111122,1111122,1199999999' 
COMPS,ioos:station:USF.COMPS:C10:1,2010-06-09T02:00:00Z,27.1690,-82.9260,4.0,135.0,35.355339059327,-99999.0,'1111122,1111122,1199999999' 
COMPS,ioos:station:USF.COMPS:C10:1,2010-06-09T03:00:00Z,27.1690,-82.9260,4.0,150.75117366345,28.653097563789,-99999.0,'1111122,1111122,1199999999' 
COMPS,ioos:station:USF.COMPS:C10:1,2010-06-09T05:00:00Z,27.1690,-82.9260,4.0,168.11134196037,19.416487838948,-99999.0,'1111122,1111122,1199999999' 
COMPS,ioos:station:USF.COMPS:C10:1,2010-06-09T06:00:00Z,27.1690,-82.9260,4.0,34.824489156957,28.017851452244,-99999.0,'1111122,1111122,1199999999' 
COMPS,ioos:station:USF.COMPS:C10:1,2010-06-09T11:00:00Z,27.1690,-82.9260,4.0,90.0,5.0,-99999.0,'1111122,1111122,1199999999' 
COMPS,ioos:station:USF.COMPS:C10:1,2010-06-09T12:00:00Z,27.1690,-82.9260,4.0,90.0,7.0,-99999.0,'1111122,1111122,1199999999' 
COMPS,ioos:station:USF.COMPS:C10:1,2010-06-09T13:00:00Z,27.1690,-82.9260,4.0,80.537677791974,6.0827625302982,-99999.0,'1111122,1111122,1199999999' 
COMPS,ioos:station:USF.COMPS:C10:1,2010-06-09T14:00:00Z,27.1690,-82.9260,4.0,78.69006752598,5.0990195135928,-99999.0,'1111122,1111122,1199999999' 
COMPS,ioos:station:USF.COMPS:C10:1,2010-06-09T15:00:00Z,27.1690,-82.9260,4.0,90.0,3.0,-99999.0,'1111122,1111122,1199999999' 
COMPS,ioos:station:USF.COMPS:C10:1,2010-06-09T16:00:00Z,27.1690,-82.9260,4.0,146.30993247402,3.605551275464,-99999.0,'1111122,1111122,1199999999' 
COMPS,ioos:station:USF.COMPS:C10:1,2010-06-09T17:00:00Z,27.1690,-82.9260,4.0,146.30993247402,3.605551275464,-99999.0,'1111122,1111122,1199999999' 
COMPS,ioos:station:USF.COMPS:C10:1,2010-06-09T18:00:00Z,27.1690,-82.9260,4.0,90.0,2.0,-99999.0,'1111122,1111122,1199999999' 
COMPS,ioos:station:USF.COMPS:C10:1,2010-06-09T19:00:00Z,27.1690,-82.9260,4.0,26.565051177078,4.4721359549996,-99999.0,'1111122,1111122,1199999999' 
COMPS,ioos:station:USF.COMPS:C10:1,2010-06-09T20:00:00Z,27.1690,-82.9260,4.0,40.601294645004,9.2195444572929,-99999.0,'1111122,1111122,1199999999' 
COMPS,ioos:station:USF.COMPS:C10:1,2010-06-09T22:00:00Z,27.1690,-82.9260,4.0,63.434948822922,15.652475842499,-99999.0,'1111122,1111122,1199999999' 
COMPS,ioos:station:USF.COMPS:C10:1,2010-06-09T23:00:00Z,27.1690,-82.9260,4.0,86.820169880136,18.02775637732,-99999.0,'1111122,1111122,1199999999' 
COMPS,ioos:station:USF.COMPS:C10:1,2010-06-10T00:00:00Z,27.1690,-82.9260,4.0,102.26477372789,23.53720459188,-99999.0,'1111122,1111122,1199999999' 
COMPS,ioos:station:USF.COMPS:C10:1,2010-06-10T02:00:00Z,27.1690,-82.9260,4.0,34.824489156957,28.017851452244,-99999.0,'1111122,1111122,1199999999' 
COMPS,ioos:station:USF.COMPS:C10:1,2010-06-10T04:00:00Z,27.1690,-82.9260,4.0,183.81407483429,15.033296378373,-99999.0,'1111122,1111122,1199999999' 
COMPS,ioos:station:USF.COMPS:C10:1,2010-06-10T06:00:00Z,27.1690,-82.9260,4.0,198.43494882292,12.649110640674,-99999.0,'1111122,1111122,1199999999' 
COMPS,ioos:station:USF.COMPS:C10:1,2010-06-10T10:00:00Z,27.1690,-82.9260,4.0,36.027373385104,27.202941017471,-99999.0,'1111122,1111122,1199999999' 
COMPS,ioos:station:USF.COMPS:C10:1,2010-06-10T11:00:00Z,27.1690,-82.9260,4.0,116.56505117708,2.2360679774998,-99999.0,'1111122,1111122,1199999999' 
COMPS,ioos:station:USF.COMPS:C10:1,2010-06-10T12:00:00Z,27.1690,-82.9260,4.0,90.0,3.0,-99999.0,'1111122,1111122,1199999999' 
COMPS,ioos:station:USF.COMPS:C10:1,2010-06-10T13:00:00Z,27.1690,-82.9260,4.0,135.0,5.6568542494924,-99999.0,'1111122,1111122,1199999999' 
COMPS,ioos:station:USF.COMPS:C10:1,2010-06-10T14:00:00Z,27.1690,-82.9260,4.0,135.0,7.0710678118655,-99999.0,'1111122,1111122,1199999999' 
COMPS,ioos:station:USF.COMPS:C10:1,2010-06-10T15:00:00Z,27.1690,-82.9260,4.0,153.43494882292,6.7082039324994,-99999.0,'1111122,1111122,1199999999' 
COMPS,ioos:station:USF.COMPS:C10:1,2010-06-10T16:00:00Z,27.1690,-82.9260,4.0,180.0,7.0,-99999.0,'1111122,1111122,1199999999' 
COMPS,ioos:station:USF.COMPS:C10:1,2010-06-10T17:00:00Z,27.1690,-82.9260,4.0,171.86989764584,7.0710678118655,-99999.0,'1111122,1111122,1199999999' 
COMPS,ioos:station:USF.COMPS:C10:1,2010-06-10T18:00:00Z,27.1690,-82.9260,4.0,180.0,7.0,-99999.0,'1111122,1111122,1199999999' 
COMPS,ioos:station:USF.COMPS:C10:1,2010-06-10T19:00:00Z,27.1690,-82.9260,4.0,180.0,5.0,-99999.0,'1111122,1111122,1199999999' 
COMPS,ioos:station:USF.COMPS:C10:1,2010-06-10T20:00:00Z,27.1690,-82.9260,4.0,225.0,1.4142135623731,-99999.0,'1111122,1111122,1199999999' 
COMPS,ioos:station:USF.COMPS:C10:1,2010-06-10T21:00:00Z,27.1690,-82.9260,4.0,270.0,1.0,-99999.0,'1113322,1111122,1199999999' 
COMPS,ioos:station:USF.COMPS:C10:1,2010-06-10T22:00:00Z,27.1690,-82.9260,4.0,90.0,2.0,-99999.0,'1111122,1111122,1199999999' 
COMPS,ioos:station:USF.COMPS:C10:1,2010-06-10T23:00:00Z,27.1690,-82.9260,4.0,90.0,5.0,-99999.0,'1111122,1111122,1199999999' 
COMPS,ioos:station:USF.COMPS:C10:1,2010-06-11T01:00:00Z,27.1690,-82.9260,4.0,113.96248897458,9.8488578017961,-99999.0,'1111122,1111122,1199999999' 
COMPS,ioos:station:USF.COMPS:C10:1,2010-06-11T02:00:00Z,27.1690,-82.9260,4.0,130.601294645,9.2195444572929,-99999.0,'1111122,1111122,1199999999' 
COMPS,ioos:station:USF.COMPS:C10:1,2010-06-11T03:00:00Z,27.1690,-82.9260,4.0,128.65980825409,12.806248474866,-99999.0,'1111122,1111122,1199999999' 
COMPS,ioos:station:USF.COMPS:C10:1,2010-06-11T04:00:00Z,27.1690,-82.9260,4.0,157.38013505196,13.0,-99999.0,'1111122,1111122,1199999999' 
COMPS,ioos:station:USF.COMPS:C10:1,2010-06-11T09:00:00Z,27.1690,-82.9260,4.0,36.027373385104,27.202941017471,-99999.0,'1111122,1111122,1199999999' 
COMPS,ioos:station:USF.COMPS:C10:1,2010-06-11T11:00:00Z,27.1690,-82.9260,4.0,251.56505117708,3.1622776601684,-99999.0,'1111122,1111122,1199999999' 
COMPS,ioos:station:USF.COMPS:C10:1,2010-06-11T12:00:00Z,27.1690,-82.9260,4.0,180.0,2.0,-99999.0,'1111122,1111122,1199999999' 
COMPS,ioos:station:USF.COMPS:C10:1,2010-06-11T13:00:00Z,27.1690,-82.9260,4.0,236.30993247402,3.605551275464,-99999.0,'1111122,1111122,1199999999' 
COMPS,ioos:station:USF.COMPS:C10:1,2010-06-11T14:00:00Z,27.1690,-82.9260,4.0,180.0,3.0,-99999.0,'1111122,1111122,1199999999' 
COMPS,ioos:station:USF.COMPS:C10:1,2010-06-11T15:00:00Z,27.1690,-82.9260,4.0,198.43494882292,3.1622776601684,-99999.0,'1111122,1111122,1199999999' 
COMPS,ioos:station:USF.COMPS:C10:1,2010-06-11T16:00:00Z,27.1690,-82.9260,4.0,180.0,4.0,-99999.0,'1111122,1111122,1199999999' 
COMPS,ioos:station:USF.COMPS:C10:1,2010-06-11T17:00:00Z,27.1690,-82.9260,4.0,161.56505117708,3.1622776601684,-99999.0,'1111122,1111122,1199999999' 
COMPS,ioos:station:USF.COMPS:C10:1,2010-06-11T18:00:00Z,27.1690,-82.9260,4.0,180.0,4.0,-99999.0,'1111122,1111122,1199999999' 
COMPS,ioos:station:USF.COMPS:C10:1,2010-06-11T19:00:00Z,27.1690,-82.9260,4.0,213.69006752598,3.605551275464,-99999.0,'1111122,1111122,1199999999' 
COMPS,ioos:station:USF.COMPS:C10:1,2010-06-11T20:00:00Z,27.1690,-82.9260,4.0,180.0,1.0,-99999.0,'1113322,1111122,1199999999' 
COMPS,ioos:station:USF.COMPS:C10:1,2010-06-11T21:00:00Z,27.1690,-82.9260,4.0,0.0,0.0,-99999.0,'1114422,1114422,1199999999' 